Location: Geroldsau
(48.7259°N, 8.2466°E)
Time: 04:46:17
(UTC+00:00)

BREEZE-M R/B - Visible Passes

Search period start: 18 October 2021 00:00
Search period end: 28 October 2021 00:00
Orbit: 581 x 26585 km, 48.9° (Epoch: 15 October)

Date Brightness Start Highest point End Pass type
(mag) Time Alt. Az. Time Alt. Az. Time Alt. Az.
20 Oct 5.8 20:35:10 10° W 20:35:11 10° W 20:35:11 10° W visible
21 Oct 5.0 19:57:23 10° W 19:58:43 21° WSW 19:58:43 21° WSW visible
22 Oct 3.9 19:19:39 10° W 19:22:16 39° SW 19:22:16 39° SW visible
23 Oct 3.1 18:41:56 10° W 18:45:17 55° SSW 18:45:50 50° SSE visible
24 Oct 2.7 18:04:09 10° W 18:07:33 69° SSW 18:09:25 31° ESE visible
25 Oct 2.5 17:26:14 10° W 17:29:51 82° SSW 17:33:00 17° ESE visible
26 Oct 2.5 16:48:09 10° W 16:52:10 89° N 16:56:02 10° E visible
